RH
85 85 85 82 77 78 80 84 86 86 85 81 75 76 82 82 79 73 72 72 73 76 75 76 75 68 68 74 76 74 76 77 78 78 80 80 76 72 72 72 75 76 76
81 81 85 82 80 79 80 84 88 87 85 82 75 76 80 79 76 74 75 75 76 75 74 76 71 68 70 74 76 74 69 74 75 80 81 84 81 76 76 76 81 76 76
79 80 80 84 83 82 82 83 89 88 86 84 78 78 78 75 75 76 77 77 74 74 75 72 69 72 73 71 68 66 66 67 72 76 80 80 81 73 75 79 78 76 76
77 81 81 86 85 84 84 83 86 88 87 85 82 81 80 74 76 78 78 76 76 74 78 77 75 71 69 66 62 63 64 66 74 70 67 70 66 67 72 74 74 73 73
81 79 82 87 86 84 84 84 84 88 86 86 84 85 82 78 75 74 77 75 75 78 82 78 74 70 68 65 64 65 67 72 75 70 76 82 82 70 71 73 74 74 75
80 79 89 88 86 86 87 86 84 85 87 87 86 85 82 78 77 79 80 78 76 75 81 79 75 71 71 68 67 67 67 72 71 77 83 77 78 65 67 69 69 69 70
76 82 86 88 86 87 88 88 86 84 86 85 84 85 81 79 79 82 80 78 73 79 80 78 75 71 72 69 66 67 71 78 70 81 84 83 76 65 66 66 66 65 66
84 87 84 88 88 88 87 89 88 86 86 85 85 85 82 79 81 83 76 76 75 81 79 77 78 74 74 70 68 68 75 79 69 81 85 87 75 65 66 67 67 67 67
84 89 90 89 89 91 91 91 89 87 87 86 85 83 82 80 81 80 64 74 76 84 84 81 80 78 76 74 72 73 75 79 76 77 72 85 76 66 66 67 67 68 69
93 93 96 96 92 95 96 92 91 91 90 87 86 85 87 80 80 68 67 73 80 86 86 85 82 82 81 80 77 79 79 78 76 73 80 84 70 65 66 67 66 66 68
95 92 90 89 90 96 95 91 92 92 91 90 91 92 84 68 66 68 74 79 85 87 86 82 79 80 84 81 77 77 78 76 78 79 84 79 69 63 64 65 65 65 64
98 98 95 89 91 89 80 95 97 94 94 89 87 82 71 71 64 67 81 83 86 88 86 81 80 82 81 84 84 76 77 73 67 79 86 83 71 67 68 68 67 66 66
96 97 97 96 96 90 89 96 98 99 96 93 86 80 74 69 70 78 86 84 83 93 95 91 90 86 84 77 74 75 66 65 65 78 78 80 72 70 71 73 76 74 73
95 94 95 96 95 96 97 92 87 94 92 95 89 84 80 73 85 82 76 86 86 98 96 96 97 86 76 68 68 67 62 60 65 72 85 82 77 67 67 69 72 73 75
87 91 95 95 94 92 95 94 93 79 83 92 84 92 74 75 82 85 88 93 97 97 95 95 90 80 73 61 57 59 62 59 64 66 76 87 81 77 70 67 67 68 70
88 90 93 96 94 91 92 95 96 88 64 71 88 76 91 71 77 83 84 87 87 82 82 79 76 68 64 59 56 60 60 64 64 59 66 76 83 80 78 70 69 70 70
89 92 94 93 93 91 90 93 93 97 69 57 64 66 62 65 73 77 77 78 76 71 67 66 61 58 58 58 63 60 59 59 62 62 61 61 72 87 84 77 75 72 72
90 94 92 82 88 90 91 91 93 90 91 55 60 61 61 62 66 68 68 69 66 65 68 68 68 68 69 69 67 62 62 62 61 61 58 61 72 73 88 85 82 78 74
92 96 96 94 91 92 96 95 93 91 86 77 63 57 59 61 62 66 70 74 76 75 74 70 72 69 71 69 67 65 61 65 62 50 56 59 63 68 79 83 90 86 86
92 96 93 94 90 87 93 94 97 94 87 86 86 69 61 60 63 68 77 74 73 73 73 74 70 72 69 70 59 58 64 69 59 59 64 57 62 63 70 70 78 80 83
87 94 95 90 87 86 90 96 98 96 96 77 81 74 68 66 65 73 81 77 74 74 78 75 71 70 74 72 82 89 84 69 60 72 66 62 67 66 67 71 77 83 90
91 87 95 93 86 82 88 90 93 96 97 89 94 81 74 73 73 75 83 90 87 90 86 82 84 89 85 88 91 94 90 85 85 77 73 63 66 68 65 66 70 77 92
88 88 86 94 88 78 79 92 95 96 98 97 93 92 92 88 88 86 87 91 93 93 94 94 96 94 95 97 92 92 99 93 88 77 71 70 64 62 64 65 66 69 75
94 95 87 94 92 84 77 86 88 92 93 97 96 97 97 94 95 94 93 95 95 96 96 95 96 96 96 98 99 99 96 91 95 90 77 69 66 62 60 64 69 70 77
98 97 98 99 98 98 92 88 90 92 94 97 97 96 98 97 94 91 92 94 96 97 96 96 98 98 98 97 97 99 97 97 95 92 88 78 72 71 69 74 78 83 83
98 97 98 98 99 97 95 93 93 96 97 98 98 98 98 97 98 96 92 94 96 97 97 97 97 97 98 97 97 96 96 95 98 97 94 91 79 74 75 78 80 87 91
Wind_Speed
13 15 21 22 19 17 17 16 17 17 17 16 16 16 16 16 16 16 16 16 14 13 16 18 19 20 18 17 16 16 16 16 17 17 15 15 17 17 16 15 12 7 13
15 17 21 20 20 17 15 14 14 16 16 17 18 17 17 16 16 16 16 16 14 16 16 19 19 18 17 16 15 14 14 14 14 14 13 11 13 17 15 12 10 13 15
16 14 15 19 18 17 15 14 13 17 16 17 17 17 18 17 16 16 15 15 17 17 16 18 17 16 15 14 12 13 12 10 8 6 10 5 6 14 15 15 15 17 17
17 14 14 17 17 16 15 14 14 15 17 17 18 18 18 18 16 16 17 16 16 16 16 17 15 14 14 12 11 11 10 8 5 7 5 6 6 12 14 14 15 14 16
15 14 13 18 17 16 15 14 14 13 18 17 18 18 18 17 18 17 17 16 17 15 16 16 13 13 12 11 10 9 8 9 13 12 7 6 5 10 12 12 12 13 14
14 14 16 18 16 15 14 14 14 14 16 17 17 18 18 18 17 16 17 16 14 11 16 15 13 12 11 9 8 8 8 10 8 8 6 8 5 11 12 12 12 12 12
13 11 14 19 17 15 14 13 14 14 15 17 18 18 19 19 17 15 18 17 15 13 14 14 12 11 10 8 7 6 9 11 7 6 6 5 5 11 12 11 11 11 11
13 12 11 16 16 15 14 15 13 14 15 17 18 18 20 19 17 15 16 19 14 16 15 14 13 11 10 7 5 5 7 9 5 7 6 4 7 10 10 10 10 11 11
14 11 9 9 12 13 10 11 11 13 15 16 17 18 19 18 16 15 18 16 14 15 15 14 13 11 9 6 4 3 4 6 5 5 6 3 6 9 9 9 9 9 10
10 8 6 7 8 6 7 10 10 10 12 14 15 17 13 15 14 16 17 15 14 13 13 12 11 10 9 6 2 1 3 5 5 6 4 4 8 7 7 7 7 7 7
9 9 5 7 6 6 6 7 7 9 11 12 13 13 13 9 11 13 11 14 13 13 13 12 11 9 8 6 4 2 3 1 2 3 3 10 8 6 6 5 4 4 4
10 7 6 6 6 7 4 5 5 6 7 9 9 10 7 9 8 9 9 14 14 12 11 12 10 9 7 3 2 5 2 2 1 5 3 9 8 6 5 5 4 3 3
12 8 7 9 4 6 7 1 3 2 4 7 11 7 8 7 7 5 5 5 6 7 3 5 5 4 5 4 4 3 4 4 3 3 6 10 9 7 6 6 6 5 5
14 13 12 11 9 6 3 4 2 4 4 5 8 7 7 7 5 6 6 6 6 3 5 5 3 5 5 6 6 6 6 5 3 3 5 11 10 9 8 7 7 7 8
12 10 10 10 9 11 10 3 2 4 7 7 8 5 8 8 9 7 6 5 5 4 5 5 4 4 5 6 6 6 6 5 5 4 3 11 11 10 10 10 9 8 8
2 8 9 9 7 8 9 12 5 6 9 9 9 11 12 10 9 8 8 7 7 7 6 5 5 5 5 4 5 6 5 5 5 6 4 5 12 12 11 11 10 8 8
7 6 8 10 11 12 11 11 10 6 9 10 12 15 14 12 11 10 9 8 8 7 7 5 5 3 3 3 4 3 3 5 4 5 6 4 6 11 9 10 9 9 8
5 8 9 9 12 11 10 7 5 10 10 11 9 9 15 13 11 10 9 9 8 7 5 4 4 4 4 4 3 3 3 3 6 4 3 5 5 4 6 10 9 8 9
7 8 9 11 13 13 9 10 12 14 10 7 8 8 12 11 9 8 6 5 6 5 4 5 3 4 3 3 3 3 4 3 5 3 3 4 5 5 4 6 8 6 7
5 6 9 9 12 11 8 8 9 7 8 7 6 7 11 9 9 7 5 6 6 6 4 4 4 3 3 4 3 4 4 4 4 3 1 2 5 6 5 5 2 2 3
4 2 9 10 8 7 7 9 7 9 7 13 8 11 11 9 10 8 5 5 6 7 6 5 4 5 3 3 3 1 2 2 4 1 2 4 5 5 5 4 3 2 3
7 8 12 9 8 7 7 6 8 7 3 9 4 9 10 12 11 7 6 5 5 5 6 4 4 3 1 3 4 2 1 2 2 3 1 4 5 2 5 4 4 5 4
11 15 15 16 15 11 13 8 9 7 3 4 4 2 3 8 7 7 6 6 5 4 4 3 1 3 2 1 2 3 2 6 2 2 2 3 4 3 4 4 4 4 4
11 8 12 17 13 13 15 12 16 10 8 3 3 3 5 5 4 5 6 6 6 4 5 6 5 4 4 4 2 2 1 3 3 2 1 2 2 2 4 3 4 4 5
7 8 7 7 10 6 12 13 12 11 6 4 3 5 5 5 4 4 4 3 4 4 4 5 4 6 4 3 1 2 1 2 3 1 2 3 1 1 2 4 4 3 5
4 12 10 8 9 8 11 13 11 9 6 5 7 5 3 2 3 3 5 4 4 5 5 5 4 5 4 4 2 4 3 4 4 3 2 2 3 2 0 2 3 4 4
Wind_Direction
158 157 155 149 149 146 145 145 150 148 146 143 140 136 132 131 132 128 130 133 140 131 120 109 112 104 101 96 94 95 90 91 90 84 67 62 67 77 73 74 71 63 71
150 154 154 151 148 151 149 147 144 155 154 148 148 145 138 138 138 138 140 146 137 121 114 113 104 105 105 104 104 104 99 98 97 87 74 53 66 74 71 79 72 65 86
146 151 150 150 147 148 151 149 149 154 156 157 153 148 145 143 145 147 139 131 128 118 116 109 110 108 107 108 111 110 103 100 106 73 91 70 65 72 69 63 72 65 71
143 151 151 151 147 149 151 153 155 158 158 159 155 152 148 148 145 135 143 130 121 121 110 108 112 111 111 112 113 106 94 76 69 120 90 68 68 74 74 66 68 67 65
146 152 155 151 150 154 155 156 159 165 160 163 161 155 150 150 147 145 135 130 122 122 116 114 115 112 112 113 109 95 76 59 87 93 88 84 72 78 76 73 67 66 66
153 151 154 152 152 155 156 160 162 171 168 165 165 157 152 150 150 150 138 125 118 127 108 115 112 112 111 109 99 81 48 33 83 92 84 84 83 89 84 78 73 70 70
153 147 155 153 153 156 157 160 165 169 172 170 168 160 159 152 152 147 137 131 133 126 122 122 121 119 114 108 97 64 41 44 108 93 90 85 88 91 88 85 81 76 71
132 142 152 153 152 157 162 160 167 165 169 173 172 165 162 151 151 153 151 127 147 147 142 136 131 127 123 116 96 70 41 54 92 108 104 90 95 94 89 85 80 76 72
130 133 143 155 150 155 155 150 161 170 169 175 176 168 160 150 154 169 153 137 147 133 141 140 138 134 131 122 97 45 36 31 109 120 118 116 109 100 95 89 83 77 73
71 75 112 142 141 141 149 150 155 165 169 173 168 158 157 143 160 156 158 150 141 131 130 131 139 139 138 136 148 291 8 7 71 132 129 143 124 110 100 90 84 81 79
92 79 77 91 85 148 150 151 148 161 167 156 144 148 149 151 159 144 151 148 136 130 133 143 143 140 142 155 174 238 331 341 39 156 155 147 140 131 123 119 108 103 105
132 138 147 109 106 71 154 126 119 119 131 142 144 150 155 149 158 140 141 148 136 137 147 152 153 157 160 176 237 229 235 241 124 159 156 157 158 161 164 165 166 171 185
158 154 178 142 157 109 77 81 120 107 135 143 150 157 166 140 156 149 143 148 139 147 163 153 162 173 185 192 220 235 219 247 159 164 166 169 171 185 199 207 211 219 225
171 177 171 167 162 135 113 89 342 148 157 159 165 155 166 150 151 165 163 153 141 163 175 181 186 197 198 211 227 214 227 221 148 171 180 177 184 192 208 222 235 241 243
160 179 190 174 173 170 139 127 128 229 173 179 171 174 175 166 163 165 157 155 165 173 188 195 196 196 217 218 196 199 198 221 185 170 187 187 190 200 208 220 231 242 257
272 163 170 176 191 176 169 153 124 236 207 183 187 177 197 174 162 173 170 176 186 186 195 189 197 199 203 192 228 223 209 215 244 181 183 193 195 199 214 221 238 251 268
203 173 176 181 187 191 185 160 158 153 245 187 184 189 180 167 173 170 174 182 191 190 187 186 202 182 169 197 217 220 231 227 234 207 185 186 195 212 209 228 241 250 264
162 174 193 197 193 190 183 189 173 187 220 195 186 171 171 172 165 172 175 184 180 179 173 173 161 170 171 175 172 230 244 236 243 241 196 187 193 186 207 226 238 251 267
178 169 201 205 188 184 170 157 157 168 197 187 161 161 162 165 162 157 168 174 168 168 165 175 171 162 173 184 199 213 246 249 243 227 228 193 172 170 172 223 223 246 294
162 176 200 193 185 179 158 153 118 189 188 161 167 164 161 165 164 162 168 180 171 167 172 172 167 182 167 188 199 217 218 223 207 208 242 120 142 154 156 154 127 12 7
162 64 195 181 192 173 175 146 146 190 186 197 173 167 164 167 171 170 176 173 169 167 180 181 174 179 209 176 103 19 304 256 290 308 198 157 164 160 144 127 127 97 42
170 189 256 202 207 201 181 168 133 139 163 220 194 176 169 169 172 171 168 172 163 136 147 164 167 124 158 180 141 124 203 310 268 269 174 209 156 169 107 134 143 127 110
183 192 197 213 198 208 187 145 126 138 178 170 203 192 168 177 161 150 150 144 139 130 163 186 179 206 178 289 234 168 162 207 153 155 169 222 169 132 133 149 131 122 115
188 192 220 211 180 198 182 152 153 167 167 186 157 153 82 112 142 158 163 176 166 165 183 186 169 168 172 204 235 224 109 157 161 198 173 191 200 164 152 127 126 119 103
167 188 181 93 122 125 122 129 136 148 141 154 108 96 94 65 59 45 65 144 182 199 215 182 174 173 182 182 177 161 140 45 34 126 203 228 335 327 177 167 129 116 106
287 199 151 135 107 99 97 91 105 118 113 128 121 116 116 135 203 203 234 199 203 222 204 190 196 197 177 161 214 218 209 156 173 169 226 225 201 282 217 133 157 139 123